Weather History for KLGA - May, 2013

Change the Weather History Date:

Wednesday, May 29, 2013

  Actual Average Record
Temperature  
Mean Temperature 71 °F 67 °F  
Max Temperature 83 °F 75 °F 95 °F (1987)
Min Temperature 58 °F 58 °F 48 °F (1946)
Degree Days  
Heating Degree Days 0 2  
Month to date heating degree days 126 131  
Since 1 July heating degree days 4435 4645  
Cooling Degree Days 6 4  
Month to date cooling degree days 49 52  
Year to date cooling degree days 49 60  
Growing Degree Days 20 (Base 50)    
Moisture  
Dew Point 59 °F    
Average Humidity 77    
Maximum Humidity 100    
Minimum Humidity 54    
Precipitation  
Precipitation T in 0.14 in 2.41 in (1968)
Month to date precipitation 4.99 3.51  
Year to date precipitation 14.41 17.41  
Snow  
Snow 0.00 in 0.00 in T in (2001)
Month to date snowfall T 0.0  
Since 1 July snowfall 22.2 26.9  
Snow Depth 0.00 in    
Sea Level Pressure  
Sea Level Pressure 30.07 in    
Wind  
Wind Speed 7 mph (East)    
Max Wind Speed 14 mph    
Max Gust Speed 17 mph    
Visibility 5 miles    
Events Fog , Rain    
T = Trace of Precipitation, MM = Missing Value Source: NWS Daily Summary

Daily Weather History Graph

Daily Weather History Graph

Search for Another Location

Airport or City:

Trip Planner

Search our weather history database for the weather conditions in past years. The results will help you decide how hot, cold, wet, or windy it might be!

Date:

Astronomy

May. 29, 2013 Rise Set
Actual Time 5:27 AM EDT 8:18 PM EDT
Civil Twilight 4:55 AM EDT 8:51 PM EDT
Nautical Twilight 4:14 AM EDT 9:32 PM EDT
Astronomical Twilight 3:27 AM EDT 10:19 PM EDT
Moon No Moon Rise 10:24 AM EDT
Length of Visible Light 15h 55m
Length of Day
14h 50m
Waning Gibbous, 73% of the Moon is Illuminated
May 29
Waning Gibbous
May 31
Last Quarter
Jun 8
New
Jun 16
First Quarter
Jun 23
Full

Hourly Weather History & Observations

Time (EDT) Temp. Heat Index Dew Point Humidity Pressure Visibility Wind Dir Wind Speed Gust Speed Precip Events Conditions
12:51 AM 59.0 °F - 55.9 °F 90% 30.13 in 2.0 mi East 3.5 mph - N/A   Overcast
1:51 AM 59.0 °F - 55.9 °F 90% 30.12 in 2.0 mi NNE 4.6 mph - N/A   Overcast
2:48 AM 57.2 °F - 55.4 °F 94% 30.09 in 0.5 mi ENE 4.6 mph - N/A   Overcast
2:51 AM 57.9 °F - 55.9 °F 93% 30.09 in 0.5 mi ENE 4.6 mph - N/A   Overcast
3:40 AM 57.2 °F - 57.2 °F 100% 30.08 in 0.2 mi ENE 4.6 mph - N/A Fog Fog
3:51 AM 57.9 °F - 57.0 °F 97% 30.08 in 0.2 mi ENE 4.6 mph - N/A Fog Fog
4:51 AM 57.9 °F - 57.0 °F 97% 30.08 in 0.2 mi NE 3.5 mph - N/A Fog Fog
5:51 AM 57.9 °F - 57.0 °F 97% 30.08 in 0.5 mi NE 3.5 mph - N/A   Overcast
6:12 AM 57.2 °F - 55.4 °F 94% 30.08 in 1.2 mi NNE 3.5 mph - N/A   Overcast
6:33 AM 57.2 °F - 55.4 °F 94% 30.08 in 1.2 mi NE 3.5 mph - N/A   Overcast
6:51 AM 57.9 °F - 55.9 °F 93% 30.09 in 1.2 mi ENE 3.5 mph - N/A   Overcast
7:38 AM 59.0 °F - 55.4 °F 88% 30.09 in 2.0 mi ENE 3.5 mph - 0.00 in Rain Light Rain
7:51 AM 59.0 °F - 57.0 °F 93% 30.09 in 2.0 mi East 3.5 mph - 0.00 in Rain Light Rain
8:01 AM 59.0 °F - 57.2 °F 94% 30.10 in 2.0 mi ENE 3.5 mph - 0.00 in   Overcast
8:21 AM 60.8 °F - 57.2 °F 88% 30.09 in 2.0 mi ENE 6.9 mph - 0.00 in   Overcast
8:37 AM 60.8 °F - 57.2 °F 88% 30.09 in 2.0 mi ENE 4.6 mph - 0.00 in   Overcast
8:51 AM 60.1 °F - 57.0 °F 90% 30.10 in 2.0 mi NE 5.8 mph - 0.00 in   Overcast
9:25 AM 60.8 °F - 55.4 °F 82% 30.10 in 4.0 mi NE 6.9 mph - N/A   Haze
9:51 AM 62.1 °F - 57.0 °F 84% 30.10 in 4.0 mi ENE 6.9 mph - N/A   Haze
10:29 AM 64.4 °F - 57.2 °F 77% 30.09 in 5.0 mi NE 4.6 mph - N/A   Haze
10:51 AM 66.9 °F - 59.0 °F 76% 30.09 in 5.0 mi NNE 4.6 mph - N/A   Haze
11:51 AM 73.9 °F - 61.0 °F 64% 30.08 in 5.0 mi Calm Calm - N/A   Haze
12:51 PM 73.9 °F - 62.1 °F 66% 30.08 in 8.0 mi SW 9.2 mph - N/A   Mostly Cloudy
1:51 PM 78.1 °F - 63.0 °F 60% 30.06 in 10.0 mi SW 11.5 mph - N/A   Mostly Cloudy
2:51 PM 81.0 °F 82.2 °F 63.0 °F 54% 30.05 in 10.0 mi SW 11.5 mph - N/A   Mostly Cloudy
3:51 PM 80.1 °F 81.7 °F 64.0 °F 58% 30.04 in 10.0 mi South 10.4 mph - N/A   Mostly Cloudy
4:51 PM 81.0 °F 82.5 °F 64.0 °F 56% 30.02 in 10.0 mi South 9.2 mph - N/A   Overcast
5:51 PM 81.0 °F 82.5 °F 64.0 °F 56% 30.01 in 10.0 mi South 8.1 mph - N/A   Mostly Cloudy
6:51 PM 79.0 °F - 62.1 °F 56% 30.01 in 10.0 mi South 9.2 mph - N/A   Mostly Cloudy
7:51 PM 79.0 °F - 61.0 °F 54% 30.00 in 10.0 mi South 8.1 mph - N/A   Mostly Cloudy
8:51 PM 78.1 °F - 61.0 °F 56% 30.01 in 10.0 mi SSW 6.9 mph - N/A   Mostly Cloudy
9:51 PM 79.0 °F - 61.0 °F 54% 30.01 in 10.0 mi South 5.8 mph - N/A   Mostly Cloudy
10:51 PM 80.1 °F 81.2 °F 62.1 °F 54% 30.05 in 10.0 mi SW 9.2 mph - N/A   Mostly Cloudy
11:51 PM 80.1 °F 81.2 °F 62.1 °F 54% 30.06 in 10.0 mi SW 10.4 mph - N/A   Scattered Clouds